Find STARLINK-37830

NORAD ID: 799501015 Int'l Des: 2026-143R Constellation: starlink operational

当前视图

正在加载3D地球...

About STARLINK-37830

STARLINK-37830 (NORAD 799501015) is a starlink constellation satellite launched Jun 15, 2026

关于 STARLINK-37830

正在加载描述...

即将过境

Passes for default location (London). Set your location on the main map for personalized predictions.

高度历史

Loading altitude history...

两行轨道根数

1 99999C 2026143R 26173.12756943-.00001664 00000-0 -255790-6 0 1736
2 99999 97.2819 215.9836 0011023 273.7603 196.0592 16.04187752 16
Epoch: Jun 22, 2026 • Age: 4 hours